Key West, FL

6:07 PM EDT on April 26, 2017 (GMT -0400)
Key West International

Weather History for KEYW - May, 2015

Change the Weather History Date:

Monday, May 11, 2015

  Actual Average Record
Temperature  
Mean Temperature 83 °F 80 °F  
Max Temperature 86 °F 84 °F 90 °F (1873)
Min Temperature 80 °F 75 °F 64 °F (1944)
Degree Days  
Heating Degree Days 0 0  
Month to date heating degree days 0 0  
Since 1 July heating degree days 27 73  
Cooling Degree Days 18 15  
Month to date cooling degree days 158 155  
Year to date cooling degree days 1360 1109  
Growing Degree Days 33 (Base 50)    
Moisture  
Dew Point 76 °F    
Average Humidity 85    
Maximum Humidity 100    
Minimum Humidity 70    
Precipitation  
Precipitation 0.00 in 0.09 in 4.85 in (1883)
Month to date precipitation 0.03 0.71  
Year to date precipitation 11.34 8.34  
Snow  
Snow 0.00 in - - ()
Month to date snowfall 0.0  
Since 1 July snowfall 0.0  
Snow Depth 0.00 in    
Sea Level Pressure  
Sea Level Pressure 30.08 in    
Wind  
Wind Speed 14 mph (East)    
Max Wind Speed 18 mph    
Max Gust Speed 24 mph    
Visibility 10 miles    
Events      
T = Trace of Precipitation, MM = Missing Value Source: NWS Daily Summary

Daily Weather History Graph

Daily Weather History Graph

Search for Another Location

Airport or City:

Trip Planner

Search our weather history database for the weather conditions in past years. The results will help you decide how hot, cold, wet, or windy it might be!

Date:

Astronomy

May. 11, 2015 Rise Set
Actual Time 6:45 AM EDT 8:01 PM EDT
Civil Twilight 6:21 AM EDT 8:25 PM EDT
Nautical Twilight 5:52 AM EDT 8:54 PM EDT
Astronomical Twilight 5:22 AM EDT 9:24 PM EDT
Moon 1:49 AM EDT (5/11) 1:33 PM EDT (5/11)
Length of Visible Light 14h 04m
Length of Day
13h 15m
Waning Gibbous, 48% of the Moon is Illuminated
May 11
Waning Gibbous
May 18
New
May 25
First Quarter
Jun 2
Full
Jun 9
Last Quarter

Hourly Weather History & Observations

Time (EDT) Temp. Heat Index Dew Point Humidity Pressure Visibility Wind Dir Wind Speed Gust Speed Precip Events Conditions
12:53 AM 80.6 °F 86.2 °F 75.2 °F 84% 30.09 in 10.0 mi East 13.8 mph - N/A   Clear
1:53 AM 80.1 °F 85.8 °F 77.0 °F 90% 30.08 in 10.0 mi ESE 13.8 mph - N/A   Clear
2:53 AM 80.1 °F 85.4 °F 75.9 °F 87% 30.06 in 10.0 mi ESE 12.7 mph - N/A   Clear
3:53 AM 80.1 °F 85.4 °F 75.9 °F 87% 30.05 in 10.0 mi East 15.0 mph - N/A   Clear
4:53 AM 80.6 °F 86.2 °F 75.2 °F 84% 30.05 in 10.0 mi East 11.5 mph - N/A   Mostly Cloudy
5:10 AM 80.1 °F 85.8 °F 77.0 °F 90% 30.05 in 10.0 mi East 11.5 mph 19.6 mph N/A   Mostly Cloudy
5:17 AM 80.1 °F 85.4 °F 75.9 °F 87% 30.05 in 10.0 mi East 11.5 mph 19.6 mph N/A   Partly Cloudy
5:53 AM 80.1 °F 85.4 °F 75.9 °F 87% 30.05 in 10.0 mi East 12.7 mph - N/A   Scattered Clouds
6:53 AM 80.1 °F 84.5 °F 73.9 °F 81% 30.07 in 10.0 mi ESE 10.4 mph - N/A   Partly Cloudy
7:53 AM 81.0 °F 86.7 °F 75.0 °F 82% 30.09 in 10.0 mi East 12.7 mph - N/A   Partly Cloudy
8:53 AM 82.9 °F 91.8 °F 77.0 °F 82% 30.10 in 10.0 mi East 12.7 mph - N/A   Partly Cloudy
9:53 AM 82.9 °F 94.8 °F 80.1 °F 91% 30.10 in 10.0 mi East 13.8 mph 20.7 mph N/A   Partly Cloudy
10:53 AM 84.2 °F 96.1 °F 78.8 °F 84% 30.11 in 10.0 mi East 16.1 mph - N/A   Partly Cloudy
11:53 AM 84.9 °F 95.3 °F 77.0 °F 77% 30.11 in 10.0 mi East 16.1 mph - N/A   Partly Cloudy
12:53 PM 86.0 °F 95.1 °F 75.2 °F 70% 30.10 in 10.0 mi ESE 16.1 mph - N/A   Partly Cloudy
1:53 PM 86.0 °F 96.0 °F 75.9 °F 72% 30.10 in 10.0 mi East 15.0 mph - N/A   Clear
2:53 PM 86.0 °F 96.9 °F 77.0 °F 74% 30.09 in 10.0 mi East 15.0 mph - N/A   Clear
3:53 PM 86.0 °F 96.9 °F 77.0 °F 74% 30.07 in 10.0 mi East 13.8 mph 23.0 mph N/A   Partly Cloudy
4:53 PM 84.2 °F 90.9 °F 73.4 °F 70% 30.06 in 10.0 mi ESE 12.7 mph - N/A   Clear
5:53 PM 84.0 °F 96.0 °F 79.0 °F 85% 30.04 in 10.0 mi ESE 17.3 mph - N/A   Partly Cloudy
6:53 PM 82.9 °F 92.8 °F 78.1 °F 85% 30.06 in 10.0 mi East 16.1 mph - N/A   Clear
7:53 PM 81.0 °F 87.9 °F 77.0 °F 88% 30.06 in 10.0 mi East 16.1 mph - N/A   Partly Cloudy
8:28 PM 81.0 °F 87.9 °F 77.0 °F 88% 30.08 in 10.0 mi ESE 13.8 mph 20.7 mph N/A   Mostly Cloudy
8:39 PM 81.0 °F 87.3 °F 75.9 °F 85% 30.09 in 10.0 mi East 16.1 mph - N/A   Scattered Clouds
8:53 PM 81.0 °F 86.7 °F 75.0 °F 82% 30.09 in 10.0 mi East 13.8 mph - N/A   Partly Cloudy
9:53 PM 81.0 °F 89.9 °F 80.1 °F 97% 30.11 in 10.0 mi East 11.5 mph - N/A   Clear
10:53 PM 81.0 °F 87.3 °F 75.9 °F 85% 30.12 in 10.0 mi East 13.8 mph - N/A   Clear
11:53 PM 80.1 °F 85.4 °F 75.9 °F 87% 30.11 in 10.0 mi East 12.7 mph 19.6 mph N/A   Partly Cloudy